Theta_e
311 313 314 313 314 315 319 315 314 326 325 310 312 318 320 319 319 319 321 321 321 319 319 323 322 322 320 318 319 315 316 314 315 316 314 316 316 318 314 310 315 314 313 313
311 313 315 314 315 316 320 317 322 326 322 309 315 316 319 320 319 319 321 322 322 321 322 323 322 321 319 315 317 318 315 314 314 316 316 315 317 314 315 312 309 315 308 311
312 313 316 315 315 316 322 316 319 317 317 310 314 316 319 322 320 321 320 321 320 320 322 321 322 322 320 315 313 313 314 316 313 315 316 314 312 311 312 312 312 313 312 313
312 314 317 316 316 318 321 317 316 313 314 319 320 316 320 322 322 320 319 321 321 321 323 323 322 321 320 317 314 316 314 317 317 314 313 313 313 311 310 310 309 310 309 313
312 315 317 317 316 319 319 322 319 314 310 313 319 318 320 321 322 321 321 320 321 320 320 320 322 320 318 315 316 317 315 316 314 314 314 312 312 310 310 311 310 310 314 316
312 315 316 317 316 316 317 319 321 315 314 313 314 318 319 321 320 321 320 319 317 316 318 317 315 315 315 316 316 318 314 310 307 305 309 306 304 308 312 312 313 312 315 312
313 316 316 317 316 317 322 323 318 314 315 311 315 320 320 321 320 321 320 317 317 316 310 308 308 308 312 314 314 314 311 308 301 303 302 304 307 309 311 312 315 313 313 311
314 316 316 317 317 318 320 322 317 311 307 317 320 321 320 319 318 320 320 319 314 311 308 307 308 306 307 310 313 313 311 305 306 304 306 305 310 313 314 313 313 313 312 310
315 315 316 317 317 317 321 324 319 312 314 318 321 320 319 318 317 317 319 317 313 309 303 303 305 308 306 315 316 311 308 303 303 305 300 301 305 313 311 310 311 312 311 310
314 315 317 320 320 320 320 323 323 317 315 316 319 318 318 315 314 312 318 318 317 307 299 298 303 310 309 314 312 310 309 300 305 296 299 305 305 311 309 311 306 311 310 309
314 315 317 320 319 317 320 322 323 319 314 318 318 318 319 316 314 314 314 312 309 303 305 300 302 301 308 311 312 312 311 307 304 303 301 309 307 310 311 308 309 310 307 305
313 314 315 319 318 319 321 321 320 320 315 316 317 316 317 319 315 314 311 313 312 309 305 300 301 308 310 305 310 309 310 307 308 309 309 307 307 310 309 308 308 307 306 304
313 314 316 320 321 318 318 321 319 319 309 314 315 316 317 319 320 317 314 311 313 310 305 306 302 302 306 309 308 312 310 309 308 309 310 308 309 308 308 307 306 304 303 303
313 315 317 319 318 318 318 317 316 313 304 306 314 315 314 316 320 320 317 314 310 305 303 305 303 300 305 303 306 310 308 311 311 309 310 311 309 307 305 304 303 304 304 303
313 316 318 317 317 318 317 318 318 316 309 309 305 312 312 316 318 317 316 313 310 306 305 303 307 302 304 299 304 305 309 310 308 309 309 310 308 305 303 303 303 303 302 298
313 314 317 317 316 316 313 309 317 315 314 307 307 308 309 313 315 314 313 313 309 305 305 304 304 308 305 309 312 310 311 310 308 310 308 305 303 302 303 303 303 302 298 294
313 313 314 317 317 316 310 307 314 315 311 304 306 303 305 308 310 306 307 308 308 308 305 302 306 307 306 306 310 309 309 309 308 304 304 305 304 304 303 302 301 296 294 293
313 314 314 314 314 314 314 313 315 313 307 300 304 304 303 307 303 305 301 302 303 304 306 303 301 303 304 310 309 308 308 305 304 304 304 305 303 303 302 295 294 293 293 292
313 314 314 313 313 310 311 313 313 312 307 302 296 305 306 302 303 299 300 302 305 301 304 305 303 304 310 309 309 309 306 306 305 304 303 303 303 298 295 295 294 293 292 292
313 312 309 303 306 309 311 309 301 300 299 299 302 300 307 306 300 302 298 301 300 308 300 304 305 309 304 303 303 304 303 303 303 303 298 296 296 296 296 295 293 293 292 291
311 302 300 307 308 308 299 303 302 303 308 301 301 301 307 301 305 303 297 299 302 307 301 304 303 307 303 301 301 300 299 299 298 298 298 297 297 296 294 292 292 291 290 290
307 306 306 306 299 300 305 304 303 305 307 301 304 303 303 300 298 301 301 303 303 307 302 306 308 304 302 302 298 296 298 298 299 299 298 296 293 292 291 290 290 290 290 291
305 301 300 300 299 309 311 313 307 307 301 300 300 303 299 298 298 301 303 307 307 301 306 308 305 303 300 298 297 297 298 298 296 293 292 292 292 291 291 291 291 291 291 291
297 301 306 304 305 302 302 303 303 298 298 298 298 299 301 298 302 301 307 303 303 307 307 301 303 303 302 299 296 293 291 290 292 292 291 291 291 291 291 291 291 291 291 291
297 299 302 298 297 297 297 296 297 295 295 297 299 299 299 300 302 301 301 303 303 300 298 301 298 301 297 295 293 291 290 289 290 291 291 291 291 291 291 292 291 291 291 291
295 297 298 297 299 298 298 297 297 294 295 295 297 300 300 300 300 300 301 301 298 295 299 298 298 298 295 293 292 291 291 291 291 292 291 291 291 291 291 291 292 292 291 291
297 298 296 297 297 298 297 296 296 295 297 300 299 299 299 297 299 300 298 295 295 296 296 296 295 294 292 291 293 293 292 292 291 291 291 291 292 291 291 290 292 292 292 291
Wind_Speed
16 13 13 18 22 22 17 5 3 2 4 4 1 3 5 4 3 6 4 4 3 6 4 4 3 4 1 4 0 2 2 5 3 1 4 2 2 3 4 4 2 2 3 5
16 13 14 20 23 24 9 4 2 3 1 4 2 3 4 1 3 3 2 2 2 2 5 6 3 3 1 4 3 4 2 2 3 6 6 4 2 3 5 5 3 4 4 5
15 13 15 21 26 23 7 4 3 3 3 1 7 4 3 1 3 3 4 3 4 5 5 6 4 3 2 2 3 2 4 3 5 6 4 3 4 3 3 5 3 4 6 4
14 12 15 22 26 20 6 2 4 5 4 2 4 5 3 3 2 2 3 3 2 5 4 3 4 2 2 4 2 3 3 4 2 4 4 2 1 4 5 6 5 6 5 8
14 12 15 22 27 23 2 4 4 2 2 6 6 3 6 6 2 3 0 5 3 2 6 6 8 6 3 3 3 3 4 1 2 1 5 6 3 5 7 5 4 5 3 3
14 12 15 22 26 20 4 3 2 4 2 4 6 5 6 8 7 4 3 8 5 5 2 3 4 4 5 5 5 3 3 4 3 3 4 4 6 8 8 4 2 6 6 7
13 12 16 24 29 24 4 3 4 4 1 3 6 7 4 6 4 7 3 4 6 3 6 4 7 12 12 11 8 3 5 4 3 2 3 1 6 5 5 5 2 3 3 8
12 12 16 20 26 24 5 3 3 3 2 1 3 7 6 7 6 5 4 5 2 8 5 5 5 5 6 5 7 6 3 5 3 3 3 5 4 4 6 6 7 6 7 6
13 12 14 16 18 18 12 5 5 3 6 2 2 4 6 6 4 4 3 4 7 6 4 4 4 4 4 2 2 5 6 6 4 3 4 6 5 2 5 4 5 9 8 9
13 13 13 12 14 17 11 5 3 4 4 2 1 3 6 6 4 4 2 2 3 4 3 3 3 3 4 4 6 4 2 3 4 2 3 8 6 4 3 5 7 7 10 10
12 12 12 12 12 14 11 6 3 3 3 3 3 3 4 4 3 5 5 4 3 3 4 3 3 3 5 2 4 6 7 6 4 3 2 7 7 4 7 6 1 7 6 6
13 12 12 11 12 15 11 7 15 15 6 3 5 14 15 4 4 6 2 4 4 4 5 1 3 2 2 2 3 2 2 6 5 9 6 4 5 3 0 4 5 6 7 5
12 12 11 11 11 9 8 13 8 9 4 4 4 4 8 17 6 4 5 2 5 3 2 4 3 3 4 4 6 3 4 4 3 3 4 6 5 1 3 3 5 6 6 6
12 13 12 11 12 12 12 10 8 10 5 4 3 6 5 12 7 4 3 12 9 8 3 3 3 3 4 3 3 3 5 5 4 4 4 1 5 5 5 5 6 6 7 6
13 14 13 14 14 16 19 20 15 8 5 4 2 2 10 12 12 16 16 19 6 3 3 2 3 2 3 1 2 3 5 6 4 6 6 5 4 7 7 7 6 7 8 5
13 13 12 14 15 11 4 4 10 10 6 4 2 4 5 10 15 19 14 8 4 3 3 2 2 2 3 3 3 6 5 4 4 3 2 2 3 7 6 6 7 7 8 12
13 11 10 9 5 5 9 4 2 5 5 3 3 3 4 5 5 4 3 6 3 3 2 1 2 1 3 3 4 4 5 4 2 5 7 4 2 4 6 7 9 13 15 13
16 18 20 19 16 13 9 15 8 8 12 4 4 1 3 5 2 2 4 2 3 4 1 1 2 2 1 3 5 4 2 4 4 3 3 2 7 8 6 14 16 9 8 8
16 15 14 7 6 5 3 5 9 14 8 4 3 5 4 3 2 1 3 2 2 1 1 1 2 1 5 5 2 3 4 4 5 3 6 8 10 10 10 8 7 7 5 5
15 8 6 3 3 4 3 3 4 5 3 3 2 1 2 3 1 2 2 2 1 1 3 0 2 3 4 3 6 6 5 6 8 9 7 10 11 12 7 3 4 5 4 3
3 3 2 2 3 3 4 3 3 1 2 2 1 2 3 2 3 2 1 2 1 2 3 3 2 2 3 7 6 6 9 15 14 16 15 17 10 6 5 4 3 1 1 1
8 14 8 3 4 3 5 2 1 1 3 1 2 1 2 1 1 3 0 2 1 4 2 1 2 1 3 5 9 11 17 20 17 15 9 8 9 7 5 2 1 3 4 5
7 6 4 3 3 3 5 6 1 2 2 2 1 1 1 1 2 3 2 4 4 2 2 3 0 5 6 8 9 11 11 12 11 10 9 7 5 3 1 1 3 5 7 9
4 3 3 1 1 2 1 1 2 1 1 2 2 2 1 1 2 1 3 1 1 3 3 3 1 5 6 7 6 5 5 9 9 7 6 5 3 2 4 6 8 10 12 13
3 2 2 1 2 2 2 1 2 2 1 1 2 2 2 1 2 1 2 1 2 1 2 2 1 2 3 4 4 6 6 5 5 4 3 3 4 6 9 10 11 12 14 16
2 3 3 2 2 1 1 2 2 2 1 1 2 2 2 1 1 2 3 3 2 2 1 1 2 2 3 4 5 6 5 4 4 5 6 7 9 11 13 15 16 18 17 17
3 2 2 2 3 3 1 1 1 0 1 1 2 2 3 1 2 1 2 2 2 2 2 3 2 3 4 7 8 1 3 5 6 7 9 10 12 13 15 16 21 20 20 20
Wind_Direction
192 193 187 186 180 171 169 123 103 141 158 68 39 163 204 265 327 24 62 95 99 158 128 78 111 139 112 328 219 72 36 123 97 157 306 312 180 117 117 108 223 73 142 276
184 182 179 183 176 166 159 109 123 55 25 141 199 266 274 345 52 38 67 91 74 95 122 99 95 94 317 353 79 147 161 38 67 359 352 349 128 70 93 98 81 194 128 264
177 172 177 182 176 172 156 104 96 349 51 209 142 164 255 121 18 64 67 102 75 85 62 31 136 120 14 25 93 131 97 95 151 182 201 178 147 116 114 125 121 188 223 229
168 164 176 178 178 172 161 83 208 179 192 243 146 150 186 143 99 54 38 52 83 131 112 80 108 122 132 38 23 74 90 119 104 59 18 4 174 169 184 196 189 170 240 210
158 163 173 174 176 177 92 134 134 41 151 135 120 136 196 158 140 133 276 113 22 67 143 173 189 138 162 182 41 71 12 123 71 114 5 3 283 225 243 226 204 242 147 227
153 161 168 169 174 172 163 176 107 110 305 114 111 207 182 199 133 39 33 142 99 47 316 94 74 71 87 124 130 108 77 115 85 257 349 335 331 223 194 186 204 149 180 214
149 155 159 169 172 180 164 150 113 97 196 141 173 176 165 169 181 141 55 70 97 141 137 105 46 52 57 53 32 74 114 88 69 197 16 356 240 311 224 174 208 183 111 154
142 139 152 163 179 189 205 158 154 134 119 184 78 117 122 85 62 71 72 353 322 130 53 65 51 355 21 2 33 20 76 119 100 141 202 299 295 188 150 170 247 197 157 146
128 125 142 154 168 181 202 216 203 122 119 278 111 121 151 132 110 36 57 40 55 67 75 72 137 189 192 202 76 51 60 70 111 136 146 215 240 224 134 104 297 181 157 173
121 122 136 142 159 167 180 122 153 91 103 312 81 150 158 119 95 106 112 131 56 39 72 85 139 222 176 172 175 174 44 14 159 142 226 287 236 191 121 103 237 167 176 179
120 122 129 129 146 154 145 108 98 102 98 8 17 10 127 107 107 135 187 65 344 45 72 121 204 142 220 131 179 176 169 152 192 106 85 276 172 88 167 207 62 163 146 159
122 118 121 122 138 146 145 101 89 84 82 137 90 74 57 42 155 125 49 156 160 164 92 138 117 145 163 140 234 115 234 192 183 185 213 243 231 238 26 149 145 170 150 166
112 107 111 108 120 135 127 114 102 83 86 24 51 2 14 40 45 150 116 302 151 113 119 142 161 154 147 170 235 191 251 160 209 98 245 233 256 183 187 163 145 144 146 147
112 103 101 103 104 115 128 103 79 85 98 105 288 7 38 10 45 111 110 129 90 98 70 104 139 157 182 205 206 181 206 137 183 259 274 279 251 224 172 128 124 131 144 154
114 109 103 104 105 108 105 85 61 72 110 142 248 337 17 28 70 86 110 108 103 108 81 99 207 158 111 307 51 256 193 188 170 228 213 179 224 186 157 143 161 158 145 112
115 114 115 122 122 114 102 47 40 51 85 99 98 322 8 33 71 68 53 56 79 85 128 195 240 268 110 134 211 257 234 220 191 241 127 107 75 129 142 152 155 147 123 136
111 108 118 120 117 78 71 118 328 46 66 83 60 350 333 357 35 37 21 31 52 88 115 125 159 121 90 142 222 248 244 237 127 126 114 62 216 178 167 139 131 125 119 132
117 109 104 103 98 89 65 52 59 53 90 63 112 261 7 15 28 39 359 35 22 20 88 29 131 45 103 248 250 294 26 85 96 171 9 173 124 121 104 115 114 105 109 118
121 117 110 79 44 51 64 80 61 56 68 118 91 140 215 16 49 36 29 39 53 315 96 250 101 194 222 250 290 318 194 188 174 108 88 90 99 96 84 86 78 107 124 145
121 110 53 32 360 98 52 43 26 20 358 41 90 39 131 78 25 38 77 12 101 203 253 120 175 252 281 319 283 273 281 168 144 125 97 96 84 79 83 107 91 110 146 176
90 65 88 98 63 65 31 59 68 352 44 18 120 152 132 359 112 156 105 171 135 213 262 176 252 271 308 353 36 48 74 89 82 86 86 88 120 159 149 145 140 196 314 323
112 114 110 84 38 46 84 63 30 119 197 355 131 126 82 47 93 99 322 147 131 241 150 161 246 328 22 58 71 74 78 79 82 99 127 142 137 140 130 120 1 328 305 305
83 59 59 56 344 109 179 178 215 147 171 190 125 67 85 40 47 81 123 177 216 105 181 231 167 101 78 84 79 81 91 112 118 111 117 122 119 106 52 302 305 306 303 305
63 59 91 49 128 51 106 87 105 108 113 113 101 78 88 37 72 115 190 174 112 214 223 237 188 121 121 123 148 110 90 104 107 100 83 66 41 353 318 305 300 291 285 292
76 64 100 95 116 63 57 53 85 18 95 80 85 62 78 48 102 62 92 84 242 167 221 358 354 110 104 109 105 113 111 96 75 59 40 7 333 309 304 309 304 291 288 292
80 71 100 105 87 88 61 50 70 358 54 49 54 98 77 75 118 103 216 162 172 229 59 63 72 99 83 102 105 117 104 61 35 17 1 342 330 322 315 312 307 304 299 291
62 53 34 75 75 86 88 93 91 160 69 93 86 89 186 82 87 91 37 170 197 179 138 169 168 132 118 127 100 179 17 34 21 2 350 336 331 320 309 306 312 308 300 292